Location: Asheville, NC
(35.6000°N, 82.5500°W)
Time: 03:15:21
(UTC-04:00)

STARS - Pass Details

Date: 14 March 2018
Orbit: 626 x 640 km, 98.3° (Epoch: 19 June)

Event Time Altitude Azimuth Distance (km) Brightness Sun altitude
Rises 06:59:00 0° 166° (SSE) 2,925 ? -9.6°
Reaches altitude 10° 07:01:11 10° 166° (SSE) 2,020 ? -9.2°
Maximum altitude 07:05:35 90° 238° (WSW) 643 ? -8.3°
Drops below altitude 10° 07:10:02 10° 347° (NNW) 2,032 ? -7.4°
Sets 07:12:14 0° 348° (NNW) 2,944 ? -7.0°
